FW8607 Weather Reports


time (UTC)temp
C
wind
direction
speed
KPH
gust
KPH
rain 1hr
cm
rain 24hr
cm
rain mn
cm
humidity
%
barometer
mb
20260901100018 17 135 1.6 4.8 0.00 0.00 0.00 92 1013.8
20260901093019 17 0.0 3.2 0.00 0.00 0.00 91 1013.8
20260901090018 17 0.0 1.6 0.00 0.00 0.00 91 1013.8
20260901083018 18 0.0 1.6 0.00 0.00 0.00 91 1013.9
20260901080018 18 135 1.6 4.8 0.00 0.00 0.00 90 1013.9
20260901073018 18 0.0 3.2 0.00 0.00 0.00 90 1013.9
20260901070018 18 270 1.6 4.8 0.00 0.00 0.00 89 1014.0
20260901063018 18 270 3.2 6.4 0.00 0.00 0.00 89 1014.2
20260901060018 19 270 3.2 6.4 0.00 0.00 0.00 87 1014.1
20260901053018 19 270 1.6 4.8 0.00 0.00 0.00 87 1013.8
20260901050018 20 270 3.2 4.8 0.00 0.00 0.00 86 1013.5
20260901043038 20 248 3.2 6.4 0.00 0.00 0.00 85 1013.4
20260901040018 20 248 4.8 8.0 0.00 0.00 0.00 83 1013.5
20260901033038 21 270 4.8 9.7 0.00 0.00 0.00 82 1012.8
20260901030017 21 248 9.7 14.5 0.00 0.00 0.00 79 1012.6
20260901023038 22 248 9.7 16.1 0.00 0.00 0.00 74 1012.3
20260901020017 24 248 11.3 19.3 0.00 0.00 0.00 68 1011.9
20260901013017 25 270 11.3 22.5 0.00 0.00 0.00 64 1011.9
20260901010019 26 248 12.9 24.1 0.00 0.00 0.00 60 1012.1
20260901003020 27 248 11.3 19.3 0.00 0.00 0.00 56 1012.0
20260901000017 27 248 12.9 24.1 0.00 0.00 0.00 54 1012.3
20260831233019 27 248 12.9 24.1 0.00 0.00 0.00 53 1012.3
20260831230019 27 248 16.1 27.4 0.00 0.00 0.00 53 1012.5
20260831223019 28 248 16.1 29.0 0.00 0.00 0.00 52 1012.8
20260831220019 28 248 16.1 30.6 0.00 0.00 0.00 52 1012.9
20260831213019 28 248 16.1 29.0 0.00 0.00 0.00 49 1012.8
20260831210019 28 248 16.1 27.4 0.00 0.00 0.00 49 1013.2
20260831203019 29 270 14.5 22.5 0.00 0.00 0.00 47 1013.4
20260831200019 28 248 16.1 25.7 0.00 0.00 0.00 47 1013.4
20260831193018 28 248 14.5 27.4 0.00 0.00 0.00 50 1013.6
20260831190038 28 248 14.5 24.1 0.00 0.00 0.00 52 1013.6
20260831183018 28 270 11.3 20.9 0.00 0.00 0.00 50 1013.6
20260831180038 27 270 9.7 19.3 0.00 0.00 0.00 51 1013.6
20260831173018 26 270 9.7 19.3 0.00 0.00 0.00 50 1013.6
20260831170018 25 270 8.0 16.1 0.00 0.00 0.00 61 1013.4
20260831163018 23 293 1.6 9.7 0.00 0.00 0.00 71 1013.3
20260831160018 22 68 1.6 6.4 0.00 0.00 0.00 74 1013.5
20260831153018 20 90 3.2 11.3 0.00 0.00 0.00 88 1013.1
20260831150018 19 135 3.2 6.4 0.00 0.00 0.00 94 1013.1
20260831143038 18 180 1.6 8.0 0.00 0.00 0.00 95 1013.0
20260831140038 18 158 3.2 8.0 0.00 0.00 0.00 95 1012.6
20260831133018 18 135 3.2 8.0 0.00 0.00 0.00 95 1012.3
20260831130018 18 180 1.6 8.0 0.00 0.00 0.00 95 1012.2
20260831123018 18 180 3.2 8.0 0.00 0.00 0.00 95 1012.1
20260831120018 18 135 3.2 9.7 0.00 0.00 0.00 95 1011.9
20260831113017 19 90 3.2 8.0 0.00 0.00 0.00 95 1012.2
20260831110017 19 338 1.6 8.0 0.00 0.00 0.00 95 1012.3
20260831103018 19 248 1.6 6.4 0.00 0.00 0.00 95 1012.4